Location: Unspecified
(35.6961°N, 0.0000°E)
Time: 23:41:24
(UTC+00:00)

Vanguard 3 - Pass Details

Date: 03 June 2019
Orbit: 508 x 3263 km, 33.3° (Epoch: 17 June)

Event Time Altitude Azimuth Distance (km) Brightness Sun altitude
Rises 17:57:44 0° 247° (WSW) 2,597 10.6 12.9°
Reaches altitude 10° 17:59:49 10° 241° (WSW) 1,720 9.6 12.5°
Maximum altitude 18:03:23 48° 165° (SSE) 738 6.9 11.8°
Drops below altitude 10° 18:07:57 10° 91° (E) 2,201 8.8 10.9°
Sets 18:10:57 0° 86° (E) 3,441 9.8 10.4°
